Temp
61 61 62 62 61 60 60 59 59 59 59 59 59 60 60 60 59 60 60 60 60 60 60 60 60 60 57 46 49 67 72 74 70 69 64 62 58 55 51 54 58 54 60 65 67 68 69
60 60 60 60 59 59 59 59 59 58 58 58 59 60 59 60 59 59 59 59 59 59 59 59 60 60 51 40 64 69 71 71 70 66 63 62 60 60 55 58 57 61 64 65 67 64 69
60 60 59 59 58 58 58 58 58 58 58 58 58 58 58 58 59 59 59 58 58 58 59 60 60 59 50 48 66 68 66 64 69 68 64 68 68 64 61 56 65 65 59 63 64 64 64
58 59 59 58 58 58 57 57 58 58 57 57 57 57 57 57 57 58 58 57 57 58 58 59 61 56 46 63 64 61 62 61 68 72 71 72 72 64 55 62 62 57 58 52 63 64 67
58 57 57 57 57 57 57 57 57 57 57 57 57 57 57 57 57 57 57 56 56 57 59 60 55 51 46 65 58 63 63 63 68 71 72 77 68 60 59 53 48 49 47 47 53 62 64
57 57 57 58 57 56 56 57 57 57 57 57 57 57 56 57 57 56 55 55 56 57 57 61 59 48 53 57 66 72 67 66 66 68 65 65 59 52 54 48 41 46 45 49 51 59 61
57 57 58 57 57 56 56 56 56 56 56 57 57 57 56 56 56 56 53 50 48 46 49 49 51 50 58 69 74 71 72 66 66 64 54 58 50 46 51 55 57 55 52 50 55 64 60
57 57 57 57 57 56 56 56 56 56 56 56 56 56 56 56 56 55 53 43 50 53 44 56 58 58 62 67 59 66 73 61 60 51 58 53 47 57 60 60 58 56 52 50 56 62 59
57 56 56 56 55 55 55 56 56 56 56 56 55 55 55 55 55 49 45 49 60 58 42 52 59 57 58 62 54 57 65 64 59 53 54 50 54 62 60 58 55 55 52 52 52 61 59
56 56 56 55 55 55 55 55 55 55 55 55 55 55 55 55 48 47 45 57 57 58 35 46 55 61 62 62 56 67 67 62 59 54 55 54 61 59 57 56 58 50 60 59 57 53 43
56 56 55 55 55 55 54 55 55 55 55 55 55 55 55 55 48 45 50 54 56 52 22 53 59 71 66 56 62 62 69 62 55 56 56 52 55 55 54 57 61 54 63 60 59 50 46
55 55 55 55 55 55 54 54 54 54 54 54 54 55 55 52 45 49 53 52 48 35 25 46 59 55 57 61 60 61 61 65 64 57 57 57 64 61 59 64 64 65 60 58 55 49 39
54 54 54 55 55 54 54 54 54 54 54 54 54 54 52 53 44 50 49 44 32 27 50 46 49 53 51 50 54 54 49 47 45 44 44 53 55 62 65 57 62 60 53 38 34 36 38
53 54 54 54 54 53 53 53 53 53 53 53 53 52 51 52 48 52 48 36 26 40 42 52 51 49 44 49 46 48 45 41 49 45 46 42 41 55 63 58 54 54 53 37 31 31 37
53 53 53 54 54 53 53 53 53 53 53 52 51 51 48 54 54 50 44 31 30 40 48 46 46 41 42 47 48 45 43 42 47 50 38 45 44 62 64 65 62 56 51 55 43 41 37
53 53 53 54 53 53 53 53 53 53 52 52 46 43 45 56 56 48 39 35 38 46 49 46 35 43 36 42 41 43 41 48 46 49 53 48 42 58 62 64 64 60 60 46 41 30 29
53 53 53 53 53 53 53 53 53 53 52 51 41 38 48 58 51 42 33 38 45 51 50 40 35 37 40 39 41 41 43 49 51 46 48 47 44 47 57 54 51 55 55 50 45 39 29
53 53 53 54 53 53 53 53 52 52 51 50 39 35 51 54 37 39 36 39 41 44 51 47 43 42 40 41 38 39 41 47 50 48 42 46 43 39 44 56 59 56 50 50 41 35 38
53 52 53 53 53 53 53 53 52 52 51 44 36 40 49 49 30 33 38 41 44 44 44 42 42 46 43 40 35 39 44 52 49 46 42 46 41 35 39 46 51 49 52 50 44 40 37
52 52 53 53 53 53 53 52 52 52 51 46 38 32 38 38 41 36 34 37 39 48 46 47 45 45 40 37 41 40 42 48 50 48 50 46 43 39 36 41 46 46 52 54 47 35 36
52 52 52 53 53 53 53 52 52 52 51 43 38 33 38 31 35 36 38 38 36 37 46 46 43 43 40 36 37 40 44 44 49 50 47 45 40 44 48 52 52 50 49 49 47 45 42
52 52 53 53 53 53 53 52 52 52 51 38 32 33 38 35 39 36 37 38 35 34 38 40 38 43 40 36 39 35 40 42 43 47 45 45 40 45 42 52 51 48 48 51 50 50 48
52 52 52 52 53 53 52 52 53 52 49 41 42 40 37 37 36 34 35 35 36 38 43 47 42 40 39 41 42 43 42 44 46 44 42 41 42 39 36 47 48 41 46 48 48 51 49
52 52 52 52 52 52 52 53 53 53 51 42 42 40 35 30 35 35 35 37 37 39 39 45 44 40 44 48 46 45 45 47 47 46 46 42 41 40 36 41 31 47 56 54 49 50 51
51 52 52 52 52 52 52 52 53 53 53 41 40 41 37 31 37 37 39 37 39 42 41 42 44 46 47 43 40 37 38 39 45 48 44 46 42 37 32 34 41 49 53 51 48 46 53
51 51 51 51 52 52 53 53 53 53 53 42 40 42 41 34 33 39 36 37 35 37 40 43 48 48 45 40 39 34 32 37 37 41 47 47 46 38 34 32 32 46 57 60 57 39 54
51 51 51 51 52 52 52 53 53 53 53 47 46 44 41 35 41 41 35 36 41 38 36 41 42 43 45 37 36 36 35 42 35 36 36 39 40 35 32 34 41 52 57 62 42 38 52
50 51 51 51 51 52 52 53 53 53 53 48 44 48 42 38 41 44 43 39 39 38 36 41 40 39 37 34 37 37 37 42 39 42 40 39 36 34 34 34 32 55 54 47 45 48 51
50 50 50 51 51 51 52 52 53 53 53 52 42 44 45 41 41 48 48 49 46 45 41 43 41 41 40 36 37 35 38 41 41 33 48 37 42 39 39 40 46 51 49 51 51 49 50
MSLP
1024.87 1024.50 1024.10 1023.72 1023.44 1023.18 1022.86 1022.53 1022.17 1021.77 1021.34 1020.88 1020.42 1019.99 1019.52 1019.02 1018.58 1018.14 1017.70 1017.30 1016.90 1016.56 1016.29 1016.05 1015.80 1015.69 1015.40 1014.77 1011.25 1007.48 1007.21 1007.64 1007.94 1008.64 1009.25 1009.63 1009.91 1009.99 1010.07 1009.74 1009.42 1008.56 1007.97 1007.31 1007.07 1006.72 1006.20
1025.13 1024.77 1024.39 1024.04 1023.67 1023.36 1023.06 1022.69 1022.29 1021.86 1021.43 1020.98 1020.50 1019.86 1019.36 1018.85 1018.44 1017.96 1017.47 1016.96 1016.49 1016.09 1015.78 1015.64 1015.50 1015.46 1015.35 1013.18 1008.45 1007.60 1007.60 1007.52 1007.67 1008.28 1008.38 1008.93 1008.84 1009.08 1009.46 1008.84 1008.57 1007.45 1007.34 1006.99 1006.64 1006.25 1005.94
1025.33 1024.95 1024.61 1024.28 1023.95 1023.60 1023.20 1022.79 1022.28 1021.79 1021.33 1020.86 1020.36 1019.85 1019.29 1018.75 1018.15 1017.63 1017.07 1016.48 1015.96 1015.52 1015.24 1014.98 1014.91 1014.87 1013.78 1009.32 1007.78 1007.14 1007.33 1007.66 1007.27 1007.35 1007.59 1007.57 1007.84 1008.32 1008.55 1008.25 1007.15 1007.12 1007.21 1006.55 1006.09 1005.88 1005.84
1025.72 1025.25 1024.86 1024.52 1024.16 1023.75 1023.34 1022.82 1022.33 1021.81 1021.25 1020.70 1020.17 1019.63 1019.04 1018.39 1017.83 1017.20 1016.47 1015.66 1015.02 1014.63 1014.38 1014.30 1014.13 1014.02 1011.06 1008.43 1007.82 1007.31 1006.51 1006.98 1006.82 1006.73 1006.62 1006.64 1007.31 1007.90 1008.22 1007.59 1006.96 1006.92 1006.80 1006.47 1005.58 1005.24 1004.87
1025.95 1025.53 1025.10 1024.67 1024.20 1023.74 1023.25 1022.72 1022.19 1021.64 1021.05 1020.46 1019.90 1019.32 1018.71 1018.10 1017.51 1016.93 1016.03 1014.76 1013.51 1013.00 1013.04 1013.22 1013.57 1013.29 1009.37 1007.14 1006.69 1005.00 1005.88 1005.88 1005.60 1005.99 1006.25 1006.34 1007.06 1007.41 1007.53 1007.67 1007.74 1006.64 1006.21 1005.76 1005.44 1004.76 1004.62
1026.06 1025.62 1025.13 1024.68 1024.24 1023.78 1023.25 1022.67 1022.10 1021.51 1020.88 1020.22 1019.58 1018.97 1018.35 1017.67 1016.96 1016.43 1015.66 1014.38 1012.03 1011.82 1011.70 1012.46 1012.32 1012.59 1008.68 1005.51 1004.07 1003.63 1003.53 1004.52 1004.86 1005.21 1005.97 1006.17 1006.49 1006.35 1006.32 1006.63 1005.03 1006.05 1005.74 1005.09 1004.97 1004.28 1004.25
1026.29 1025.80 1025.26 1024.80 1024.29 1023.77 1023.21 1022.59 1021.98 1021.36 1020.70 1020.07 1019.39 1018.70 1018.04 1017.34 1016.49 1016.02 1015.46 1014.42 1012.35 1011.81 1011.30 1010.13 1009.33 1008.06 1005.39 1003.97 1003.13 1002.46 1002.98 1003.65 1004.35 1004.41 1004.88 1005.07 1005.51 1003.75 1004.31 1004.78 1005.12 1005.12 1005.02 1004.83 1004.26 1003.82 1003.84
1026.37 1025.87 1025.40 1024.89 1024.35 1023.81 1023.18 1022.53 1021.86 1021.16 1020.44 1019.72 1019.07 1018.43 1017.76 1016.93 1016.03 1015.26 1015.33 1014.75 1012.26 1011.57 1009.07 1008.00 1007.14 1005.63 1004.52 1003.25 1002.38 1001.83 1002.46 1003.17 1003.20 1003.02 1003.88 1004.43 1002.35 1003.52 1004.05 1004.11 1004.42 1004.56 1004.36 1004.39 1004.11 1003.32 1003.82
1026.44 1025.96 1025.47 1024.97 1024.44 1023.81 1023.15 1022.44 1021.75 1021.03 1020.25 1019.47 1018.69 1018.02 1017.30 1016.58 1015.39 1014.79 1014.86 1013.86 1011.87 1011.99 1010.22 1005.39 1004.18 1002.72 1001.44 1002.82 1000.76 1000.66 1001.90 1001.27 1001.36 1002.33 1002.01 1002.01 1001.63 1002.91 1003.04 1003.07 1003.17 1003.25 1003.49 1003.95 1004.20 1003.26 1003.54
1026.45 1025.92 1025.39 1024.93 1024.34 1023.70 1023.05 1022.32 1021.57 1020.77 1019.98 1019.17 1018.25 1017.56 1016.86 1016.24 1015.30 1014.70 1013.92 1012.46 1012.23 1012.17 1010.13 1004.70 1002.08 999.92 1000.29 1001.07 1000.36 998.72 999.58 1000.56 1000.45 1000.17 1001.84 1001.84 1001.67 1001.53 1001.86 1001.70 1002.18 1002.29 1002.84 1003.33 1003.67 1004.04 1004.13
1026.50 1025.94 1025.44 1024.86 1024.22 1023.59 1022.94 1022.18 1021.33 1020.42 1019.55 1018.74 1017.80 1016.83 1016.41 1016.19 1015.35 1014.49 1012.55 1012.07 1011.90 1011.48 1009.75 1003.56 1000.51 999.48 999.42 1000.72 999.67 998.41 998.32 999.76 999.52 999.94 1001.17 999.55 1000.47 1000.78 1000.74 1000.44 1001.27 1001.18 1002.42 1002.88 1003.25 1004.03 1004.45
1026.49 1025.93 1025.34 1024.73 1024.06 1023.43 1022.72 1021.91 1021.06 1020.14 1019.16 1018.23 1017.21 1016.05 1015.39 1014.89 1014.54 1012.60 1012.06 1012.27 1012.18 1011.52 1007.59 1003.50 1000.21 999.90 1000.37 1000.00 999.93 999.42 999.04 999.44 999.81 1000.13 1000.10 999.79 999.65 999.81 999.48 1000.12 1000.56 1001.20 1001.93 1002.64 1003.17 1004.11 1004.38
1026.48 1025.92 1025.29 1024.62 1023.95 1023.26 1022.49 1021.67 1020.76 1019.80 1018.79 1017.71 1016.41 1014.92 1014.25 1014.12 1012.56 1011.79 1012.19 1012.26 1012.04 1009.51 1005.66 1002.92 1001.50 1001.33 1001.38 1001.35 1000.52 1000.14 1001.05 1001.28 1001.14 1000.60 1000.11 999.88 999.44 999.24 999.19 999.90 999.89 1000.70 1001.74 1002.89 1003.73 1004.12 1003.74
1026.51 1025.88 1025.21 1024.54 1023.84 1023.16 1022.38 1021.47 1020.55 1019.60 1018.46 1017.29 1015.74 1013.90 1011.88 1011.85 1011.48 1012.14 1012.41 1012.29 1010.84 1007.65 1005.80 1003.82 1002.96 1002.34 1002.54 1001.78 1001.87 1001.77 1002.13 1002.00 1001.91 1001.51 1000.23 999.65 999.12 997.93 997.89 998.28 998.85 999.79 1000.81 1001.84 1003.06 1003.79 1004.17
1026.43 1025.84 1025.25 1024.54 1023.84 1023.04 1022.19 1021.25 1020.38 1019.47 1018.30 1016.97 1015.06 1012.70 1011.75 1010.26 1010.38 1011.82 1011.83 1011.36 1009.40 1007.35 1006.01 1005.08 1004.35 1003.25 1002.39 1002.24 1002.20 1002.21 1002.22 1002.02 1001.71 1000.96 1001.27 999.23 997.99 997.55 997.62 997.67 998.56 998.68 999.53 1000.95 1002.73 1004.07 1004.16
1026.56 1025.91 1025.23 1024.43 1023.68 1022.91 1022.14 1021.28 1020.28 1019.33 1018.30 1017.22 1015.54 1013.36 1011.66 1010.24 1009.93 1011.02 1011.49 1009.80 1008.61 1007.45 1006.43 1006.04 1005.34 1004.04 1003.29 1002.75 1002.96 1002.54 1002.51 1002.04 1001.79 1001.55 1000.91 999.87 998.88 997.66 996.69 997.29 997.50 997.92 999.20 1000.51 1002.03 1003.72 1004.77
1026.44 1025.75 1025.04 1024.28 1023.57 1022.80 1022.08 1021.20 1020.27 1019.26 1018.28 1017.04 1015.81 1014.26 1010.93 1010.42 1010.49 1011.76 1010.74 1009.38 1008.01 1006.94 1006.89 1006.36 1005.17 1004.68 1003.76 1003.22 1003.04 1002.65 1001.43 1001.27 1001.19 1001.24 1001.37 1000.67 1000.11 998.50 997.07 997.28 997.54 997.75 998.42 999.60 1001.53 1003.00 1004.43
1026.23 1025.54 1024.87 1024.18 1023.52 1022.74 1021.97 1021.17 1020.34 1019.45 1018.38 1017.30 1016.82 1015.19 1011.24 1011.12 1011.64 1011.93 1010.53 1009.84 1009.07 1007.21 1006.36 1005.56 1004.99 1004.30 1003.91 1003.50 1002.81 1002.48 1001.29 1000.67 1000.82 1001.52 1001.27 1001.12 1000.49 999.76 998.10 998.11 998.23 998.22 998.90 999.66 1000.88 1003.28 1004.01
1026.09 1025.50 1024.78 1024.06 1023.39 1022.68 1021.93 1021.18 1020.35 1019.63 1019.00 1018.24 1016.96 1015.13 1012.14 1011.91 1013.10 1012.12 1010.90 1009.70 1008.53 1007.27 1006.34 1005.36 1004.72 1004.12 1003.87 1003.51 1003.01 1002.02 1001.14 1000.64 1001.23 1001.30 1001.62 1001.17 1000.61 1000.04 999.96 999.46 998.60 998.29 999.05 999.55 1000.04 1002.21 1003.87
1025.98 1025.36 1024.72 1023.99 1023.21 1022.48 1021.78 1021.10 1020.34 1019.65 1018.98 1018.54 1017.52 1015.82 1014.16 1013.48 1013.83 1013.08 1011.68 1009.73 1008.61 1007.20 1005.86 1005.26 1004.60 1004.12 1004.17 1003.68 1002.50 1001.55 1001.30 1000.65 1001.23 1001.27 1001.76 1001.34 999.90 998.95 998.10 997.88 998.88 998.95 998.84 998.40 999.42 1001.89 1003.64
1025.74 1025.11 1024.46 1023.76 1023.11 1022.24 1021.56 1020.83 1020.13 1019.52 1018.83 1018.55 1017.78 1016.86 1016.58 1014.97 1013.74 1013.39 1012.41 1010.76 1009.28 1007.80 1006.38 1005.16 1004.27 1004.05 1004.12 1003.77 1003.12 1001.75 1001.03 1000.83 1001.05 1000.95 1001.04 1000.99 999.46 998.80 997.86 997.53 998.17 998.78 998.36 998.26 999.25 1000.71 1001.94
1025.58 1024.90 1024.25 1023.51 1022.75 1022.04 1021.47 1020.79 1020.06 1019.33 1018.77 1018.60 1018.53 1018.19 1016.85 1015.74 1014.54 1013.58 1012.20 1010.68 1009.88 1008.04 1007.12 1005.31 1004.52 1004.43 1004.04 1003.96 1003.44 1002.79 1002.17 1000.91 1000.59 1000.44 1000.17 1000.21 999.17 998.54 998.47 997.86 998.15 999.14 998.66 998.76 999.62 1000.76 1001.77
1025.36 1024.69 1024.04 1023.29 1022.64 1021.91 1021.24 1020.67 1019.91 1019.33 1019.05 1018.80 1018.52 1018.03 1017.25 1015.55 1014.50 1013.67 1012.34 1011.59 1010.16 1008.92 1006.83 1005.65 1005.27 1004.44 1003.88 1003.65 1003.43 1002.97 1002.54 1001.65 1000.81 1000.37 1000.19 999.78 998.95 999.30 999.63 998.97 999.00 999.35 999.32 999.38 1000.17 1000.85 1001.82
1025.01 1024.35 1023.68 1023.07 1022.42 1021.82 1021.06 1020.39 1019.79 1019.26 1019.05 1019.27 1018.71 1018.14 1017.07 1015.44 1014.61 1013.54 1012.53 1011.59 1010.36 1009.04 1007.31 1005.72 1005.31 1004.51 1003.61 1003.39 1002.86 1002.00 1001.64 1000.91 1000.56 1000.04 1000.07 999.81 999.49 999.96 1000.21 999.92 999.91 999.51 998.88 999.50 1000.32 1001.63 1002.76
1024.67 1024.06 1023.33 1022.78 1022.21 1021.48 1020.76 1020.13 1019.39 1018.83 1018.47 1018.73 1018.34 1018.07 1016.80 1015.36 1014.32 1013.00 1012.09 1011.37 1010.04 1008.70 1007.23 1006.03 1005.12 1004.57 1003.43 1002.92 1001.99 1001.49 1001.10 1000.64 1000.04 999.68 1000.05 1000.18 1000.16 1000.80 1001.03 1000.58 1000.31 999.52 999.28 999.20 999.62 1002.40 1003.20
1024.37 1023.70 1023.04 1022.36 1021.71 1020.99 1020.19 1019.61 1018.95 1018.29 1017.88 1017.82 1017.70 1017.44 1016.72 1015.44 1013.64 1013.27 1012.31 1011.27 1010.00 1008.69 1007.01 1005.74 1004.64 1003.75 1003.18 1002.60 1001.56 1001.02 1000.57 1000.29 1000.01 999.94 999.76 999.73 999.92 1001.06 1000.45 999.95 1000.06 999.50 998.79 998.48 999.23 1001.66 1002.69
1023.95 1023.32 1022.65 1021.95 1021.28 1020.64 1019.72 1019.10 1018.44 1017.83 1017.32 1017.23 1016.84 1016.70 1016.43 1015.44 1013.53 1013.14 1012.32 1011.26 1010.21 1009.32 1007.96 1005.96 1004.86 1003.54 1002.92 1002.46 1001.39 1000.61 1000.28 1000.16 1000.13 1000.02 1000.08 1000.17 1000.37 1000.65 1000.38 1000.17 1000.19 999.54 999.13 998.72 1000.41 1002.99 1003.08
1023.50 1022.91 1022.30 1021.54 1020.74 1020.10 1019.28 1018.65 1017.86 1017.28 1016.74 1016.64 1016.18 1015.83 1016.01 1014.92 1013.06 1012.41 1011.57 1011.05 1009.81 1009.39 1008.14 1006.33 1005.16 1004.42 1003.62 1002.70 1001.97 1001.33 1000.43 999.79 999.46 999.80 999.92 1000.19 1000.80 1001.25 1000.98 1001.30 1001.46 999.72 999.71 1000.53 1002.71 1003.32 1004.06
1023.02 1022.44 1021.79 1020.93 1020.24 1019.55 1018.72 1018.20 1017.42 1016.74 1016.17 1015.82 1015.72 1015.16 1015.02 1014.76 1012.93 1011.82 1010.60 1009.63 1009.57 1008.60 1008.15 1006.70 1006.13 1005.33 1004.72 1003.85 1002.99 1002.21 1001.11 1000.15 999.61 999.93 999.59 1000.14 1000.52 1000.82 1001.32 1001.94 1001.69 1000.70 1001.00 1002.38 1003.20 1004.01 1005.89
Wind_Speed
16 18 17 14 13 13 13 14 15 15 15 15 16 17 18 16 17 18 19 19 20 21 21 20 18 14 8 5 17 14 22 6 12 14 16 12 10 8 8 6 7 7 11 9 9 13 17
17 18 18 19 18 17 17 17 17 17 17 18 19 20 18 21 19 21 21 20 20 20 20 20 18 13 6 19 9 12 14 8 11 16 15 13 8 8 3 10 11 6 19 18 12 12 14
19 18 18 18 18 19 19 20 20 18 18 19 19 20 21 21 21 22 22 22 22 22 22 21 18 12 14 31 7 10 13 8 6 18 10 18 17 8 9 7 10 15 12 12 11 9 9
19 19 19 19 19 19 19 19 20 20 20 20 19 19 22 23 23 24 24 25 25 24 25 22 18 12 18 16 15 22 17 10 15 16 19 15 16 13 3 6 7 6 11 17 15 9 9
19 19 19 19 19 19 19 20 21 21 21 21 19 19 20 23 24 24 25 28 30 30 24 16 8 5 16 8 10 20 21 15 12 13 15 10 11 8 6 7 5 4 9 6 7 8 8
19 19 19 19 19 18 19 20 20 21 22 22 20 20 21 22 24 22 24 29 31 22 4 6 6 6 9 10 6 6 10 22 9 16 14 16 7 7 12 9 16 11 5 3 7 5 8
19 19 19 19 20 19 19 21 21 21 22 24 23 22 22 23 25 24 16 9 6 1 4 12 13 11 18 12 16 17 6 12 12 14 17 14 10 21 21 17 8 8 7 6 6 11 7
19 20 19 20 21 21 20 21 21 22 23 23 24 23 23 24 26 26 15 4 7 4 16 18 24 29 31 32 20 18 9 11 13 17 18 11 28 15 9 16 16 11 10 9 8 9 7
19 20 20 22 22 20 21 22 22 23 23 24 24 23 23 22 27 9 3 11 12 16 8 13 23 19 25 22 29 25 8 19 17 19 23 24 3 19 16 17 18 16 15 9 8 14 5
20 21 21 21 20 21 23 24 24 24 24 24 25 24 23 23 10 7 12 8 10 16 6 11 8 9 8 10 10 23 24 14 14 27 18 20 23 17 20 18 16 17 10 15 15 10 6
20 21 20 20 21 21 22 24 26 26 25 25 27 28 24 14 11 7 8 10 15 3 7 9 6 3 7 10 9 2 14 12 20 16 19 23 24 26 21 23 15 14 15 16 18 6 4
20 22 21 21 21 22 22 23 24 26 27 27 28 30 28 12 6 12 13 11 3 2 10 10 6 12 21 11 8 6 4 8 7 13 15 24 7 21 27 13 21 14 12 11 6 6 10
21 22 23 22 22 22 23 23 25 26 28 29 31 34 26 11 8 6 3 2 2 8 5 7 6 17 17 16 14 4 7 10 7 16 17 17 19 18 13 20 19 14 15 6 4 6 9
22 22 23 23 22 23 24 24 25 26 28 31 35 36 11 8 6 7 1 3 8 7 14 15 18 22 13 7 6 4 1 5 9 16 8 15 16 24 23 20 18 20 14 7 7 5 4
22 22 24 25 23 23 23 24 25 26 28 32 33 8 8 6 8 6 3 4 7 5 9 12 20 15 0 6 7 1 2 5 6 13 6 15 19 13 21 17 21 20 19 11 7 3 5
22 23 23 23 23 23 23 24 25 26 28 32 12 7 7 7 2 7 4 7 5 5 11 14 17 10 13 9 8 4 5 7 5 4 8 7 12 19 17 13 17 23 7 7 1 8 4
21 22 23 21 22 22 23 24 24 26 27 27 5 8 6 14 5 3 4 6 10 11 14 5 3 8 10 16 11 9 6 5 4 5 8 6 3 5 11 10 14 4 19 1 8 6 8
22 22 22 24 22 23 23 23 24 25 27 10 4 7 5 8 6 3 3 12 5 17 16 11 6 11 11 11 5 7 11 5 6 5 2 2 2 4 9 1 0 6 3 9 9 4 3
21 23 23 22 22 23 23 22 22 22 23 10 7 6 6 4 5 6 8 11 16 14 14 5 4 8 3 5 3 9 9 7 12 7 8 5 7 6 9 2 4 3 14 7 8 5 5
22 22 23 23 22 22 22 22 21 22 23 9 4 6 5 4 6 8 13 10 13 16 10 7 11 2 4 4 6 5 6 6 15 8 9 6 4 4 9 5 7 6 11 10 9 6 6
22 22 23 23 23 22 21 21 21 21 22 4 2 3 2 8 11 16 15 12 15 15 8 8 5 2 5 5 7 6 7 6 10 10 5 5 7 6 6 11 12 1 3 3 6 9 8
22 22 23 23 23 23 21 20 21 21 19 3 2 4 3 12 12 14 13 8 17 14 7 4 8 9 6 6 7 6 7 2 2 7 3 3 4 6 6 12 21 4 6 9 9 10 12
22 22 22 23 24 23 21 21 21 20 12 2 2 4 5 7 10 11 6 14 18 24 10 9 13 11 8 8 6 12 9 12 3 3 3 4 2 4 4 6 10 2 3 9 12 8 13
21 22 22 23 23 22 21 21 22 20 14 2 3 4 4 8 8 12 19 19 20 24 15 8 13 9 4 10 13 8 10 8 6 7 4 1 4 3 5 6 6 3 7 13 17 11 5
22 22 22 22 23 22 22 22 21 19 18 3 3 3 3 5 11 17 20 18 20 19 14 7 10 12 14 9 4 3 1 1 4 4 11 2 4 5 5 5 4 4 7 10 8 5 6
22 22 22 23 23 23 23 22 21 19 17 2 3 3 5 5 4 15 18 17 11 10 9 9 10 12 5 3 2 4 3 3 2 2 5 8 2 4 3 6 5 4 5 13 10 3 3
22 22 23 23 23 23 23 24 22 20 19 7 5 4 3 6 9 7 9 7 7 10 7 7 14 5 4 3 1 2 3 5 4 5 2 4 3 3 3 6 3 1 7 8 7 7 9
22 23 24 24 24 24 23 23 23 21 19 8 6 6 3 4 11 9 4 17 16 5 7 9 8 3 4 6 5 4 2 1 3 5 6 4 3 2 4 6 1 4 3 9 6 7 17
22 23 24 24 23 25 23 23 23 22 19 13 3 3 3 5 9 14 20 20 16 20 7 4 4 8 3 3 3 3 3 5 3 3 3 5 4 3 4 4 4 11 21 15 17 20 18
Wind_Direction
11 6 3 4 2 0 358 353 347 341 335 326 321 321 319 320 322 318 316 312 309 307 307 306 305 312 324 247 244 268 294 359 140 168 192 202 193 164 192 217 236 226 250 253 246 246 257
12 11 14 14 14 11 2 353 347 343 339 335 332 329 325 322 319 318 314 308 303 298 297 299 301 302 258 266 242 259 257 256 177 186 193 189 212 198 227 233 200 228 234 245 248 250 254
10 8 9 8 5 1 354 347 344 343 342 340 338 335 332 329 324 319 313 304 297 294 290 289 288 279 246 242 275 292 288 311 207 191 191 207 210 184 179 303 236 234 264 261 239 229 238
11 6 6 3 2 357 354 349 347 343 339 336 334 330 327 323 319 315 310 304 295 290 287 282 277 261 253 254 253 263 257 267 243 217 214 193 205 221 195 305 321 210 235 248 254 228 246
9 8 6 2 358 356 351 348 344 340 337 334 332 325 323 322 320 318 313 304 296 286 284 265 249 206 267 297 225 250 231 223 209 202 217 210 179 202 230 204 282 236 245 226 267 199 218
7 5 1 359 355 352 344 343 339 337 335 332 329 325 322 318 315 315 311 307 292 294 238 211 233 227 260 250 204 232 177 194 211 194 210 212 198 201 214 176 212 223 209 202 199 239 198
3 359 357 355 352 348 341 339 336 334 332 331 329 325 321 318 314 314 318 335 354 319 254 200 195 229 289 252 268 279 171 165 204 195 198 196 205 215 215 216 230 233 226 240 224 244 228
357 354 352 350 346 341 336 337 335 333 330 329 326 323 323 318 315 311 306 239 229 339 295 231 243 240 242 252 275 256 275 203 196 207 194 212 227 215 218 224 220 225 223 239 278 259 177
355 353 349 345 342 339 340 336 332 330 329 327 324 323 320 320 315 324 253 246 287 332 274 278 233 237 239 214 244 254 247 199 204 204 205 206 242 207 211 223 215 217 219 220 229 277 247
351 350 349 347 340 339 340 339 336 331 328 325 321 319 317 324 315 329 296 276 329 322 289 286 241 266 178 198 276 233 224 219 225 212 209 222 223 203 208 223 206 225 203 227 239 250 244
348 349 348 344 343 340 337 337 336 331 327 324 319 314 314 318 290 263 249 330 317 289 300 278 248 156 108 164 306 34 214 213 218 206 182 217 203 216 213 219 201 224 225 231 235 215 215
349 348 347 341 343 339 336 334 334 333 330 325 320 313 313 304 237 242 267 290 294 107 243 265 294 11 352 344 346 348 13 208 219 223 220 222 212 198 223 213 223 215 232 232 232 199 236
351 348 346 343 344 340 336 335 333 333 332 327 321 311 307 269 252 207 228 296 117 224 309 253 321 347 350 337 325 35 20 335 278 207 216 222 222 231 205 219 234 212 218 238 253 215 225
350 349 347 345 342 337 338 335 335 334 333 330 323 312 277 238 216 246 216 86 223 251 232 304 323 328 311 309 35 46 119 284 256 258 223 207 215 210 211 212 215 223 215 176 200 171 189
348 348 348 346 343 340 337 337 335 336 336 331 322 310 300 270 182 155 189 181 224 224 267 300 314 305 331 331 334 111 253 221 274 180 232 202 231 214 218 219 216 226 217 192 124 348 105
347 347 346 344 343 341 340 341 339 339 337 333 318 312 292 321 173 147 236 233 251 256 304 320 293 251 282 300 324 240 188 189 203 307 276 285 226 219 219 209 225 210 199 176 316 146 156
345 343 342 339 341 339 340 339 340 340 340 332 312 326 273 358 65 65 294 242 285 303 312 295 283 279 258 280 265 274 239 164 169 59 1 213 167 327 201 199 231 179 207 193 120 151 146
341 340 339 339 338 337 335 340 341 340 341 345 312 310 302 340 44 309 312 338 323 285 293 291 302 271 269 301 273 238 204 229 134 166 214 224 296 166 224 162 341 297 300 180 172 177 129
340 340 338 337 336 336 338 339 341 341 343 330 306 272 298 41 0 326 303 307 297 297 304 283 252 240 31 292 223 244 193 184 157 151 193 154 213 150 149 4 343 161 261 205 110 98 179
338 337 337 336 334 338 342 340 341 340 335 333 299 311 337 352 355 327 322 307 313 304 302 301 278 33 330 288 242 255 202 166 169 174 219 45 255 190 205 142 148 172 220 176 128 119 153
337 337 336 333 336 339 339 338 339 339 335 350 305 323 346 316 330 315 307 289 340 331 293 294 264 221 295 287 301 243 238 146 183 204 172 228 204 193 138 156 162 7 49 41 128 158 151
335 333 334 334 333 333 337 334 337 337 341 49 330 341 328 293 298 310 310 340 325 310 267 302 310 320 302 272 239 303 351 355 214 195 160 214 199 140 67 145 157 155 49 75 99 103 83
333 333 330 331 333 335 335 333 336 339 359 318 298 260 268 292 307 309 307 320 316 316 289 334 330 310 294 309 322 287 262 277 275 297 161 261 102 85 105 136 123 55 144 84 91 82 136
331 329 333 335 334 334 332 330 332 332 348 233 287 277 281 298 309 305 305 320 323 318 304 320 341 308 325 312 298 245 249 240 231 262 167 29 67 75 132 126 140 113 130 109 99 88 53
329 330 332 331 329 328 328 327 327 328 327 212 252 296 278 283 295 300 324 320 314 311 306 312 318 300 293 290 241 161 260 207 236 173 175 122 91 113 164 123 130 100 158 153 135 165 150
328 329 329 326 326 327 327 328 326 322 321 297 245 219 278 304 248 318 311 308 310 319 317 296 315 299 294 287 292 185 171 146 147 106 46 93 37 209 178 96 87 261 172 135 112 12 51
327 328 326 325 325 323 324 323 326 322 317 314 287 223 268 272 279 305 302 303 310 305 278 293 325 324 322 300 307 46 93 133 151 141 182 113 32 62 61 86 26 113 347 161 81 207 129
327 325 324 323 323 321 322 320 320 323 320 318 272 254 222 266 285 269 296 300 293 281 291 315 317 21 302 358 3 14 18 316 131 130 130 107 98 50 68 80 118 357 32 133 150 82 109
323 322 320 322 322 322 321 318 317 320 324 324 269 255 214 242 274 286 281 272 261 256 275 292 289 305 283 317 352 319 339 358 27 78 306 66 158 143 80 81 358 68 102 99 106 107 113